Location: Estes Par
(40.3770°N, 105.5210°W)
Time: 18:06:52
(UTC-06:00)

Vanguard 2 - Visible Passes

Search period start: 16 October 2017 00:00
Search period end: 26 October 2017 00:00
Orbit: 554 x 2939 km, 32.9° (Epoch: 16 October)

Date Brightness Start Highest point End Pass type
(mag) Time Alt. Az. Time Alt. Az. Time Alt. Az.
18 Oct 12.1 06:16:11 10° SSE 06:21:38 12° SE 06:26:34 10° ESE visible
19 Oct 12.0 06:30:03 10° S 06:39:43 18° SE 06:47:47 10° ESE visible
20 Oct 11.8 06:45:42 10° SSW 06:57:48 25° SSE 07:07:22 10° ESE visible
21 Oct 12.1 05:01:03 10° SSE 05:05:20 11° SE 05:09:25 10° SE visible
22 Oct 11.9 05:13:43 10° S 05:23:18 17° SE 05:31:53 10° ESE visible
23 Oct 11.7 05:28:56 10° S 05:41:14 24° SE 05:51:55 10° E visible
24 Oct 11.5 05:45:06 10° SSW 05:59:12 30° SSE 06:11:07 10° E visible
25 Oct 11.9 03:58:36 10° SSE 04:06:40 15° SE 04:14:29 10° ESE visible
25 Oct 11.3 06:01:51 10° SSW 06:17:11 37° SSE 06:29:52 10° E visible
